EB1DWF Weather Reports


time (UTC)temp
C
wind
direction
speed
KPH
gust
KPH
rain 1hr
cm
rain 24hr
cm
rain mn
cm
humidity
%
barometer
mb
20260507100004 18 204 3.2 6.4 0.00 0.00 0.00 49 1001.1
20260507095615 18 209 4.8 6.4 0.00 0.00 0.00 49 1001.1
20260507094503 18 215 4.8 6.4 0.00 0.00 0.00 50 1001.3
20260507093603 19 240 3.2 6.4 0.00 0.00 0.00 51 1001.5
20260507092703 17 238 3.2 6.4 0.00 0.00 0.00 54 1001.5
20260507092014 17 250 3.2 6.4 0.00 0.00 0.00 58 1001.6
20260507091117 15 237 3.2 6.4 0.00 0.00 0.00 66 1001.7
20260507090005 14 239 1.6 4.8 0.00 0.00 0.00 71 1001.8
20260507085616 14 259 0.0 3.2 0.00 0.00 0.00 71 1001.7
20260507084504 13 227 1.6 3.2 0.00 0.00 0.00 73 1001.8
20260507083603 13 228 0.0 4.8 0.00 0.00 0.00 74 1001.9
20260507082913 12 235 1.6 4.8 0.00 0.00 0.00 76 1001.8
20260507082015 12 239 0.0 4.8 0.00 0.00 0.00 75 1001.9
20260507080903 12 225 0.0 1.6 0.00 0.00 0.00 78 1001.9
20260507080215 12 220 0.0 1.6 0.00 0.00 0.00 79 1002.0
20260507075403 11 228 0.0 3.2 0.00 0.00 0.00 80 1002.0
20260507074714 11 209 1.6 4.8 0.00 0.00 0.00 80 1002.0
20260507073816 11 253 3.2 4.8 0.00 0.00 0.00 81 1002.0
20260507072703 11 225 0.0 6.4 0.00 0.00 0.00 81 1002.1
20260507071803 11 251 3.2 6.4 0.00 0.00 0.00 83 1002.1
20260507070903 11 256 1.6 4.8 0.00 0.00 0.00 84 1002.2
20260507070215 10 243 0.0 4.8 0.00 0.00 0.00 87 1002.2
20260507065617 10 225 0.0 4.8 0.00 0.00 0.00 89 1002.1
20260507064714 9 209 0.0 3.2 0.00 0.00 0.00 91 1002.1
20260507063603 9 157 1.6 4.8 0.00 0.00 0.00 92 1002.0
20260507062703 9 223 0.0 6.4 0.00 0.00 0.00 94 1002.1
20260507061803 8 252 1.6 4.8 0.00 0.00 0.00 95 1002.0
20260507060904 8 269 0.0 6.4 0.00 0.00 0.00 96 1002.0
20260507060003 8 271 1.6 6.4 0.00 0.00 0.00 95 1002.0
20260507055403 8 195 3.2 6.4 0.00 0.00 0.00 94 1002.0
20260507054715 8 249 3.2 6.4 0.00 0.00 0.00 95 1002.0
20260507053604 8 315 0.0 3.2 0.00 0.00 0.00 95 1002.1
20260507052915 8 244 0.0 4.8 0.00 0.00 0.00 95 1002.0
20260507051803 8 236 1.6 4.8 0.00 0.00 0.00 95 1001.9
20260507051114 8 188 0.0 1.6 0.00 0.00 0.00 95 1002.0
20260507050217 8 288 0.0 4.8 0.00 0.00 0.00 94 1002.0
20260507045613 8 277 3.2 4.8 0.00 0.00 0.00 93 1002.1
20260507044716 8 235 3.2 6.4 0.00 0.00 0.00 92 1002.1
20260507043813 8 226 4.8 6.4 0.00 0.00 0.00 91 1002.1
20260507042915 8 303 0.0 4.8 0.00 0.00 0.00 90 1002.2
20260507041803 9 199 0.0 1.6 0.00 0.00 0.00 90 1002.1
20260507040903 9 225 0.0 1.6 0.00 0.00 0.00 89 1002.1
20260507040004 9 225 0.0 1.6 0.00 0.00 0.00 89 1002.4
20260507035403 9 0 0.0 0.0 0.00 0.00 0.00 89 1002.4
20260507034503 9 0 0.0 0.0 0.00 0.00 0.00 88 1002.5
20260507033603 9 192 0.0 3.2 0.00 0.00 0.00 88 1002.4
20260507032703 9 196 0.0 1.6 0.00 0.00 0.00 88 1002.4
20260507032013 9 225 0.0 3.2 0.00 0.00 0.00 87 1002.3
20260507030903 9 220 1.6 4.8 0.00 0.00 0.00 86 1002.3
20260507030213 10 160 3.2 4.8 0.00 0.00 0.00 87 1002.4
20260507025614 10 0 0.0 0.0 0.00 0.00 0.00 87 1002.4
20260507024504 9 0 0.0 0.0 0.00 0.00 0.00 87 1002.4
20260507023814 9 0 0.0 0.0 0.00 0.00 0.00 87 1002.5
20260507022703 9 228 0.0 3.2 0.00 0.00 0.00 86 1002.4
20260507022014 9 252 0.0 3.2 0.00 0.00 0.00 86 1002.4
20260507021116 9 0 0.0 0.0 0.00 0.00 0.00 86 1002.5
20260507020003 9 0 0.0 0.0 0.00 0.00 0.00 86 1002.5
20260507015403 9 0 0.0 0.0 0.00 0.00 0.00 86 1002.4
20260507014712 9 0 0.0 0.0 0.00 0.00 0.00 86 1002.3
20260507013603 9 182 0.0 4.8 0.00 0.00 0.00 85 1002.4
20260507012917 10 156 1.6 4.8 0.00 0.00 0.00 84 1002.6
20260507011804 10 137 0.0 6.4 0.00 0.00 0.00 84 1002.6
20260507010004 10 278 0.0 4.8 0.00 0.00 0.00 85 1002.7
20260507005616 10 271 0.0 6.4 0.00 0.00 0.00 85 1002.7
20260507004713 10 169 3.2 6.4 0.00 0.00 0.00 82 1002.9
20260507003815 10 146 0.0 6.4 0.00 0.00 0.00 82 1002.9
20260507002703 10 195 0.0 3.2 0.00 0.00 0.00 82 1002.9
20260507002015 10 206 0.0 4.8 0.00 0.00 0.00 82 1002.9
20260507000903 10 87 3.2 6.4 0.00 0.00 0.00 81 1002.8
20260507000004 10 223 0.0 1.6 0.00 0.00 0.00 82 1002.7
20260506235403 10 225 0.0 3.2 0.00 0.00 0.00 82 1002.7
20260506234504 10 139 3.2 4.8 0.00 0.00 0.00 83 1002.7
20260506233603 10 215 1.6 4.8 0.00 0.00 0.00 83 1002.8
20260506232703 10 187 0.0 8.0 0.00 0.00 0.00 83 1002.9
20260506231804 10 140 1.6 6.4 0.00 0.00 0.00 83 1002.9
20260506231113 10 223 3.2 6.4 0.00 0.00 0.00 82 1002.8
20260506230215 11 203 3.2 8.0 0.00 0.00 0.00 82 1002.9
20260506225403 11 169 3.2 8.0 0.00 0.00 0.00 81 1002.9
20260506224503 11 83 4.8 6.4 0.00 0.00 0.00 81 1002.9
20260506223603 11 227 4.8 6.4 0.00 0.00 0.00 81 1002.9
20260506222703 11 184 3.2 6.4 0.00 0.00 0.00 80 1003.0
20260506221804 11 80 0.0 6.4 0.00 0.00 0.00 80 1003.1
20260506221114 12 57 3.2 6.4 0.00 0.00 0.00 78 1003.0
20260506220003 12 282 0.0 6.4 0.00 0.00 0.00 78 1003.0
20260506215403 12 222 1.6 6.4 0.00 0.00 0.00 76 1003.0
20260506214715 12 175 3.2 6.4 0.00 0.00 0.00 74 1003.0
20260506213603 12 233 1.6 3.2 0.00 0.00 0.00 73 1002.9
20260506212915 12 229 0.0 6.4 0.00 0.00 0.00 72 1003.0
20260506212017 12 173 4.8 9.7 0.00 0.00 0.00 72 1003.1
20260506210904 12 206 3.2 4.8 0.00 0.00 0.00 72 1002.9
20260506210003 13 166 1.6 9.7 0.00 0.00 0.00 70 1003.0
20260506205403 13 209 4.8 9.7 0.00 0.00 0.00 67 1002.9
20260506204503 13 223 4.8 8.0 0.00 0.00 0.00 64 1002.8
20260506203813 14 218 3.2 6.4 0.00 0.00 0.00 63 1002.7
20260506202704 14 219 0.0 6.4 0.00 0.00 0.00 61 1002.6
20260506202012 14 192 0.0 4.8 0.00 0.00 0.00 59 1002.6
20260506201115 14 203 0.0 3.2 0.00 0.00 0.00 58 1002.5
20260506200003 14 234 4.8 11.3 0.00 0.00 0.00 57 1002.3
20260506195614 14 238 0.0 11.3 0.00 0.00 0.00 57 1002.3
20260506194503 15 227 0.0 16.1 0.00 0.00 0.00 57 1002.4
20260506193813 15 230 3.2 16.1 0.00 0.00 0.00 55 1002.2
20260506192703 15 231 3.2 12.9 0.00 0.00 0.00 54 1002.3
20260506192013 15 242 6.4 12.9 0.00 0.00 0.00 55 1002.2
20260506191116 15 200 0.0 3.2 0.00 0.00 0.00 57 1002.3
20260506190004 15 158 0.0 6.4 0.00 0.00 0.00 58 1002.1
20260506185614 15 330 0.0 11.3 0.00 0.00 0.00 57 1002.2
20260506184717 15 87 3.2 11.3 0.00 0.00 0.00 56 1002.2
20260506183604 16 89 0.0 6.4 0.00 0.00 0.00 52 1002.1
20260506182916 16 133 3.2 6.4 0.00 0.00 0.00 53 1002.1
20260506181803 17 262 1.6 9.7 0.00 0.00 0.00 49 1002.1
20260506181116 17 294 0.0 4.8 0.00 0.00 0.00 50 1002.2
20260506180213 17 279 1.6 6.4 0.00 0.00 0.00 50 1002.2
20260506175615 16 332 0.0 6.4 0.00 0.00 0.00 52 1002.1
20260506174717 16 29 3.2 11.3 0.00 0.00 0.00 55 1002.2
20260506173815 16 35 6.4 11.3 0.00 0.00 0.00 51 1002.2
20260506172917 16 236 4.8 11.3 0.00 0.00 0.00 49 1002.2
20260506172014 16 162 4.8 11.3 0.00 0.00 0.00 49 1002.3
20260506171117 16 180 4.8 17.7 0.00 0.00 0.00 48 1002.3
20260506170003 16 160 12.9 17.7 0.00 0.00 0.00 46 1002.3
20260506165616 16 149 8.0 19.3 0.00 0.00 0.00 48 1002.4
20260506164503 16 144 14.5 19.3 0.00 0.00 0.00 45 1002.2
20260506163603 17 152 8.0 29.0 0.00 0.00 0.00 40 1002.3
20260506162703 18 171 8.0 11.3 0.00 0.00 0.00 36 1002.0
20260506161803 18 149 3.2 8.0 0.00 0.00 0.00 33 1002.1
20260506160903 19 192 3.2 6.4 0.00 0.00 0.00 32 1002.1
20260506160003 19 146 1.6 14.5 0.00 0.00 0.00 32 1002.1
20260506155616 19 153 4.8 14.5 0.00 0.00 0.00 32 1002.2
20260506154503 19 153 6.4 17.7 0.00 0.00 0.00 31 1002.1
20260506153816 20 211 0.0 20.9 0.00 0.00 0.00 30 1002.2
20260506152913 21 172 12.9 20.9 0.00 0.00 0.00 28 1002.2
20260506151803 20 157 3.2 12.9 0.00 0.00 0.00 32 1002.4
20260506150903 20 142 6.4 12.9 0.00 0.00 0.00 31 1002.6
20260506150215 18 163 1.6 17.7 0.00 0.00 0.00 33 1002.5
20260506145403 18 153 12.9 27.4 0.00 0.00 0.00 34 1002.6
20260506144714 19 138 6.4 11.3 0.00 0.00 0.00 31 1002.7
20260506143817 20 250 0.0 6.4 0.00 0.00 0.00 28 1002.8
20260506142914 20 204 1.6 6.4 0.00 0.00 0.00 30 1002.9
20260506142016 19 227 3.2 8.0 0.00 0.00 0.00 29 1002.9
20260506141114 20 210 3.2 8.0 0.00 0.00 0.00 27 1002.9
20260506140216 20 198 3.2 17.7 0.00 0.00 0.00 25 1003.0
20260506135618 21 246 6.4 17.7 0.00 0.00 0.00 23 1003.0
20260506134504 23 243 3.2 6.4 0.00 0.00 0.00 23 1003.1
20260506133817 22 271 1.6 8.0 0.00 0.00 0.00 21 1003.2
20260506132703 22 246 9.7 16.1 0.00 0.00 0.00 21 1003.3
20260506131803 22 247 6.4 12.9 0.00 0.00 0.00 21 1003.2
20260506130903 21 222 3.2 12.9 0.00 0.00 0.00 22 1003.4
20260506130004 21 256 3.2 12.9 0.00 0.00 0.00 21 1003.4
20260506125403 21 231 3.2 11.3 0.00 0.00 0.00 22 1003.6
20260506124716 20 249 4.8 12.9 0.00 0.00 0.00 24 1003.7
20260506123818 21 217 6.4 12.9 0.00 0.00 0.00 23 1003.9
20260506122915 20 258 0.0 11.3 0.00 0.00 0.00 28 1004.0
20260506122013 20 252 6.4 11.3 0.00 0.00 0.00 29 1004.0
20260506120903 20 235 3.2 12.9 0.00 0.00 0.00 27 1004.2
20260506120003 20 211 3.2 8.0 0.00 0.00 0.00 30 1004.4
20260506115404 20 225 3.2 9.7 0.00 0.00 0.00 31 1004.4
20260506114503 20 276 3.2 11.3 0.00 0.00 0.00 30 1004.6
20260506113813 20 247 6.4 12.9 0.00 0.00 0.00 30 1004.7
20260506112916 20 230 1.6 4.8 0.00 0.00 0.00 32 1004.8
20260506112013 19 196 3.2 6.4 0.00 0.00 0.00 32 1004.9
20260506110903 19 220 0.0 6.4 0.00 0.00 0.00 34 1005.1
20260506110213 18 251 1.6 4.8 0.00 0.00 0.00 35 1005.1
20260506105403 18 248 3.2 6.4 0.00 0.00 0.00 33 1005.1
20260506104717 18 199 0.0 11.3 0.00 0.00 0.00 37 1005.0
20260506103814 17 224 3.2 11.3 0.00 0.00 0.00 34 1005.1
20260506102917 18 263 0.0 6.4 0.00 0.00 0.00 34 1005.2
20260506102014 18 233 4.8 6.4 0.00 0.00 0.00 35 1005.2
20260506100903 18 230 1.6 8.0 0.00 0.00 0.00 38 1005.2
20260506100213 17 236 3.2 8.0 0.00 0.00 0.00 38 1005.3